User: anonymous   Login
Location: Mauna Kea VIS
(19.7591°N, 155.4561°W)
Time: 05:42:16
(UTC-10:00)
Language:

Cosmos 1624 Rocket - Orbit

View from above orbital plane
View from above orbital plane
View from above satellite
View from above satellite

Ground track
Ground track

The orbit data is extracted from the following two-line orbital elements,

1 15483U 85006B   14304.45268017  .00000264  00000-0  99844-4 0  3630
2 15483 074.0451 316.3204 0018426 177.9174 289.6110 14.35889262558788
Epoch (UTC): 31 October 2014 10:51:51
Eccentricity: 0.0018426
inclination: 74.0451°
perigee height: 759 km
apogee height: 785 km
right ascension of ascending node: 316.3204°
argument of perigee: 177.9174°
revolutions per day: 14.35889262
mean anomaly at epoch: 289.6110°
orbit number at epoch: 55878

The dashed part of the orbit path shows where the satellite is in the earth's shadow,  

DLR